Year,Month,Day,Hour,Minute,Value (Times are PST for temperature in C)
2014,07,03,00,00,14.70
2014,07,03,00,01,14.70
2014,07,03,00,02,14.70
2014,07,03,00,03,14.60
2014,07,03,00,04,14.60
2014,07,03,00,05,14.60
2014,07,03,00,06,14.60
2014,07,03,00,07,14.70
2014,07,03,00,08,14.70
2014,07,03,00,09,14.70
2014,07,03,00,10,14.60
2014,07,03,00,11,14.60
2014,07,03,00,12,14.60
2014,07,03,00,13,14.70
2014,07,03,00,14,14.70
2014,07,03,00,15,14.70
2014,07,03,00,16,14.80
2014,07,03,00,17,14.80
2014,07,03,00,18,14.90
2014,07,03,00,19,14.90
2014,07,03,00,20,14.90
2014,07,03,00,21,14.90
2014,07,03,00,22,14.90
2014,07,03,00,23,14.90
2014,07,03,00,24,14.90
2014,07,03,00,25,14.90
2014,07,03,00,26,14.80
2014,07,03,00,27,14.80
2014,07,03,00,28,14.80
2014,07,03,00,29,14.80
2014,07,03,00,30,14.70
2014,07,03,00,31,14.70
2014,07,03,00,32,14.70
2014,07,03,00,33,14.60
2014,07,03,00,34,14.60
2014,07,03,00,35,14.60
2014,07,03,00,36,14.60
2014,07,03,00,37,14.60
2014,07,03,00,38,14.60
2014,07,03,00,39,14.60
2014,07,03,00,40,14.60
2014,07,03,00,41,14.50
2014,07,03,00,42,14.50
2014,07,03,00,43,14.40
2014,07,03,00,44,14.30
2014,07,03,00,45,14.30
2014,07,03,00,46,14.30
2014,07,03,00,47,14.20
2014,07,03,00,48,14.20
2014,07,03,00,49,14.20
2014,07,03,00,50,14.10
2014,07,03,00,51,14.10
2014,07,03,00,52,14.00
2014,07,03,00,53,14.00
2014,07,03,00,54,14.00
2014,07,03,00,55,14.00
2014,07,03,00,56,14.10
2014,07,03,00,57,14.10
2014,07,03,00,58,14.20
2014,07,03,00,59,14.30
2014,07,03,01,00,14.40
2014,07,03,01,01,14.50
2014,07,03,01,02,14.60
2014,07,03,01,03,14.60
2014,07,03,01,04,14.70
2014,07,03,01,05,14.70
2014,07,03,01,06,14.80
2014,07,03,01,07,14.90
2014,07,03,01,08,14.90
2014,07,03,01,09,14.90
2014,07,03,01,10,14.90
2014,07,03,01,11,15.00
2014,07,03,01,12,15.00
2014,07,03,01,13,15.10
2014,07,03,01,14,15.20
2014,07,03,01,15,15.20
2014,07,03,01,16,15.30
2014,07,03,01,17,15.40
2014,07,03,01,18,15.40
2014,07,03,01,19,15.50
2014,07,03,01,20,15.50
2014,07,03,01,21,15.50
2014,07,03,01,22,15.50
2014,07,03,01,23,15.60
2014,07,03,01,24,15.60
2014,07,03,01,25,15.60
2014,07,03,01,26,15.50
2014,07,03,01,27,15.40
2014,07,03,01,28,15.40
2014,07,03,01,29,15.40
2014,07,03,01,30,15.30
2014,07,03,01,31,15.30
2014,07,03,01,32,15.30
2014,07,03,01,33,15.30
2014,07,03,01,34,15.30
2014,07,03,01,35,15.30
2014,07,03,01,36,15.30
2014,07,03,01,37,15.20
2014,07,03,01,38,15.20
2014,07,03,01,39,15.20
2014,07,03,01,40,15.20
2014,07,03,01,41,15.20
2014,07,03,01,42,15.20
2014,07,03,01,43,15.20
2014,07,03,01,44,15.20
2014,07,03,01,45,15.20
2014,07,03,01,46,15.20
2014,07,03,01,47,15.10
2014,07,03,01,48,15.10
2014,07,03,01,49,15.10
2014,07,03,01,50,15.10
2014,07,03,01,51,15.10
2014,07,03,01,52,15.10
2014,07,03,01,53,15.10
2014,07,03,01,54,15.10
2014,07,03,01,55,15.20
2014,07,03,01,56,15.20
2014,07,03,01,57,15.20
2014,07,03,01,58,15.20
2014,07,03,01,59,15.20
2014,07,03,02,00,15.10
2014,07,03,02,01,15.10
2014,07,03,02,02,15.10
2014,07,03,02,03,15.10
2014,07,03,02,04,15.00
2014,07,03,02,05,15.00
2014,07,03,02,06,14.90
2014,07,03,02,07,14.90
2014,07,03,02,08,14.80
2014,07,03,02,09,14.80
2014,07,03,02,10,14.80
2014,07,03,02,11,14.70
2014,07,03,02,12,14.70
2014,07,03,02,13,14.60
2014,07,03,02,14,14.60
2014,07,03,02,15,14.60
2014,07,03,02,16,14.50
2014,07,03,02,17,14.50
2014,07,03,02,18,14.50
2014,07,03,02,19,14.50
2014,07,03,02,20,14.40
2014,07,03,02,21,14.40
2014,07,03,02,22,14.40
2014,07,03,02,23,14.40
2014,07,03,02,24,14.40
2014,07,03,02,25,14.40
2014,07,03,02,26,14.40
2014,07,03,02,27,14.50
2014,07,03,02,28,14.40
2014,07,03,02,29,14.40
2014,07,03,02,30,14.40
2014,07,03,02,31,14.40
2014,07,03,02,32,14.40
2014,07,03,02,33,14.30
2014,07,03,02,34,14.30
2014,07,03,02,35,14.30
2014,07,03,02,36,14.30
2014,07,03,02,37,14.20
2014,07,03,02,38,14.20
2014,07,03,02,39,14.20
2014,07,03,02,40,14.10
2014,07,03,02,41,14.10
2014,07,03,02,42,14.10
2014,07,03,02,43,14.10
2014,07,03,02,44,14.00
2014,07,03,02,45,14.00
2014,07,03,02,46,13.90
2014,07,03,02,47,13.90
2014,07,03,02,48,13.80
2014,07,03,02,49,13.80
2014,07,03,02,50,13.70
2014,07,03,02,51,13.70
2014,07,03,02,52,13.70
2014,07,03,02,53,13.60
2014,07,03,02,54,13.60
2014,07,03,02,55,13.70
2014,07,03,02,56,13.70
2014,07,03,02,57,13.80
2014,07,03,02,58,13.80
2014,07,03,02,59,13.90
2014,07,03,03,00,13.90
2014,07,03,03,01,13.90
2014,07,03,03,02,13.90
2014,07,03,03,03,13.90
2014,07,03,03,04,13.90
2014,07,03,03,05,13.90
2014,07,03,03,06,13.90
2014,07,03,03,07,13.80
2014,07,03,03,08,13.80
2014,07,03,03,09,13.80
2014,07,03,03,10,13.70
2014,07,03,03,11,13.70
2014,07,03,03,12,13.70
2014,07,03,03,13,13.70
2014,07,03,03,14,13.60
2014,07,03,03,15,13.60
2014,07,03,03,16,13.60
2014,07,03,03,17,13.60
2014,07,03,03,18,13.50
2014,07,03,03,19,13.50
2014,07,03,03,20,13.50
2014,07,03,03,21,13.40
2014,07,03,03,22,13.40
2014,07,03,03,23,13.40
2014,07,03,03,24,13.40
2014,07,03,03,25,13.30
2014,07,03,03,26,13.30
2014,07,03,03,27,13.30
2014,07,03,03,28,13.30
2014,07,03,03,29,13.30
2014,07,03,03,30,13.20
2014,07,03,03,31,13.10
2014,07,03,03,32,13.10
2014,07,03,03,33,13.00
2014,07,03,03,34,12.90
2014,07,03,03,35,12.90
2014,07,03,03,36,12.80
2014,07,03,03,37,12.80
2014,07,03,03,38,12.70
2014,07,03,03,39,12.70
2014,07,03,03,40,12.70
2014,07,03,03,41,12.60
2014,07,03,03,42,12.60
2014,07,03,03,43,12.60
2014,07,03,03,44,12.60
2014,07,03,03,45,12.50
2014,07,03,03,46,12.50
2014,07,03,03,47,12.50
2014,07,03,03,48,12.50
2014,07,03,03,49,12.40
2014,07,03,03,50,12.50
2014,07,03,03,51,12.50
2014,07,03,03,52,12.60
2014,07,03,03,53,12.60
2014,07,03,03,54,12.60
2014,07,03,03,55,12.70
2014,07,03,03,56,12.70
2014,07,03,03,57,12.70
2014,07,03,03,58,12.80
2014,07,03,03,59,12.70
2014,07,03,04,00,12.80
2014,07,03,04,01,12.80
2014,07,03,04,02,12.80
2014,07,03,04,03,12.80
2014,07,03,04,04,12.80
2014,07,03,04,05,12.70
2014,07,03,04,06,12.70
2014,07,03,04,07,12.70
2014,07,03,04,08,12.70
2014,07,03,04,09,12.70
2014,07,03,04,10,12.70
2014,07,03,04,11,12.70
2014,07,03,04,12,12.70
2014,07,03,04,13,12.60
2014,07,03,04,14,12.60
2014,07,03,04,15,12.60
2014,07,03,04,16,12.60
2014,07,03,04,17,12.60
2014,07,03,04,18,12.60
2014,07,03,04,19,12.60
2014,07,03,04,20,12.50
2014,07,03,04,21,12.50
2014,07,03,04,22,12.50
2014,07,03,04,23,12.40
2014,07,03,04,24,12.40
2014,07,03,04,25,12.40
2014,07,03,04,26,12.40
2014,07,03,04,27,12.40
2014,07,03,04,28,12.30
2014,07,03,04,29,12.30
2014,07,03,04,30,12.30
2014,07,03,04,31,12.20
2014,07,03,04,32,12.20
2014,07,03,04,33,12.20
2014,07,03,04,34,12.20
2014,07,03,04,35,12.20
2014,07,03,04,36,12.20
2014,07,03,04,37,12.20
2014,07,03,04,38,12.20
2014,07,03,04,39,12.20
2014,07,03,04,40,12.20
2014,07,03,04,41,12.20
2014,07,03,04,42,12.20
2014,07,03,04,43,12.20
2014,07,03,04,44,12.20
2014,07,03,04,45,12.30
2014,07,03,04,46,12.30
2014,07,03,04,47,12.30
2014,07,03,04,48,12.30
2014,07,03,04,49,12.30
2014,07,03,04,50,12.30
2014,07,03,04,51,12.30
2014,07,03,04,52,12.30
2014,07,03,04,53,12.30
2014,07,03,04,54,12.30
2014,07,03,04,55,12.30
2014,07,03,04,56,12.30
2014,07,03,04,57,12.30
2014,07,03,04,58,12.30
2014,07,03,04,59,12.30
2014,07,03,05,00,12.30
2014,07,03,05,01,12.30
2014,07,03,05,02,12.20
2014,07,03,05,03,12.20
2014,07,03,05,04,12.20
2014,07,03,05,05,12.20
2014,07,03,05,06,12.20
2014,07,03,05,07,12.10
2014,07,03,05,08,12.10
2014,07,03,05,09,12.00
2014,07,03,05,10,12.00
2014,07,03,05,11,11.90
2014,07,03,05,12,11.90
2014,07,03,05,13,11.90
2014,07,03,05,14,11.80
2014,07,03,05,15,11.80
2014,07,03,05,16,11.70
2014,07,03,05,17,11.70
2014,07,03,05,18,11.70
2014,07,03,05,19,11.70
2014,07,03,05,20,11.60
2014,07,03,05,21,11.60
2014,07,03,05,22,11.60
2014,07,03,05,23,11.60
2014,07,03,05,24,11.60
2014,07,03,05,25,11.60
2014,07,03,05,26,11.50
2014,07,03,05,27,11.50
2014,07,03,05,28,11.50
2014,07,03,05,29,11.50
2014,07,03,05,30,11.40
2014,07,03,05,31,11.40
2014,07,03,05,32,11.40
2014,07,03,05,33,11.40
2014,07,03,05,34,11.40
2014,07,03,05,35,11.40
2014,07,03,05,36,11.40
2014,07,03,05,37,11.30
2014,07,03,05,38,11.30
2014,07,03,05,39,11.30
2014,07,03,05,40,11.30
2014,07,03,05,41,11.30
2014,07,03,05,42,11.30
2014,07,03,05,43,11.30
2014,07,03,05,44,11.30
2014,07,03,05,45,11.40
2014,07,03,05,46,11.40
2014,07,03,05,47,11.40
2014,07,03,05,48,11.40
2014,07,03,05,49,11.40
2014,07,03,05,50,11.40
2014,07,03,05,51,11.40
2014,07,03,05,52,11.40
2014,07,03,05,53,11.40
2014,07,03,05,54,11.40
2014,07,03,05,55,11.40
2014,07,03,05,56,11.40
2014,07,03,05,57,11.40
2014,07,03,05,58,11.40
2014,07,03,05,59,11.40
2014,07,03,06,00,11.50
2014,07,03,06,01,11.50
2014,07,03,06,02,11.70
2014,07,03,06,03,11.70
2014,07,03,06,04,11.80
2014,07,03,06,05,11.80
2014,07,03,06,06,11.80
2014,07,03,06,07,11.90
2014,07,03,06,08,11.90
2014,07,03,06,09,11.90
2014,07,03,06,10,11.90
2014,07,03,06,11,11.90
2014,07,03,06,12,12.00
2014,07,03,06,13,12.00
2014,07,03,06,14,12.10
2014,07,03,06,15,12.10
2014,07,03,06,16,12.20
2014,07,03,06,17,12.20
2014,07,03,06,18,12.30
2014,07,03,06,19,12.40
2014,07,03,06,20,12.40
2014,07,03,06,21,12.50
2014,07,03,06,22,12.60
2014,07,03,06,23,12.60
2014,07,03,06,24,12.70
2014,07,03,06,25,12.80
2014,07,03,06,26,12.90
2014,07,03,06,27,13.00
2014,07,03,06,28,13.10
2014,07,03,06,29,13.20
2014,07,03,06,30,13.30
2014,07,03,06,31,13.40
2014,07,03,06,32,13.50
2014,07,03,06,33,13.60
2014,07,03,06,34,13.70
2014,07,03,06,35,13.80
2014,07,03,06,36,13.80
2014,07,03,06,37,13.90
2014,07,03,06,38,13.90
2014,07,03,06,39,14.00
2014,07,03,06,40,14.00
2014,07,03,06,41,14.10
2014,07,03,06,42,14.10
2014,07,03,06,43,14.10
2014,07,03,06,44,14.20
2014,07,03,06,45,14.20
2014,07,03,06,46,14.20
2014,07,03,06,47,14.20
2014,07,03,06,48,14.20
2014,07,03,06,49,14.20
2014,07,03,06,50,14.30
2014,07,03,06,51,14.30
2014,07,03,06,52,14.40
2014,07,03,06,53,14.50
2014,07,03,06,54,14.50
2014,07,03,06,55,14.50
2014,07,03,06,56,14.60
2014,07,03,06,57,14.60
2014,07,03,06,58,14.60
2014,07,03,06,59,14.70
2014,07,03,07,00,14.70
2014,07,03,07,01,14.80
2014,07,03,07,02,14.80
2014,07,03,07,03,14.90
2014,07,03,07,04,14.90
2014,07,03,07,05,15.00
2014,07,03,07,06,15.00
2014,07,03,07,07,15.10
2014,07,03,07,08,15.10
2014,07,03,07,09,15.20
2014,07,03,07,10,15.20
2014,07,03,07,11,15.30
2014,07,03,07,12,15.30
2014,07,03,07,13,15.40
2014,07,03,07,14,15.40
2014,07,03,07,15,15.50
2014,07,03,07,16,15.50
2014,07,03,07,17,15.60
2014,07,03,07,18,15.60
2014,07,03,07,19,15.60
2014,07,03,07,20,15.70
2014,07,03,07,21,15.70
2014,07,03,07,22,15.70
2014,07,03,07,23,15.80
2014,07,03,07,24,15.80
2014,07,03,07,25,15.90
2014,07,03,07,26,16.00
2014,07,03,07,27,16.00
2014,07,03,07,28,16.10
2014,07,03,07,29,16.10
2014,07,03,07,30,16.20
2014,07,03,07,31,16.20
2014,07,03,07,32,16.30
2014,07,03,07,33,16.30
2014,07,03,07,34,16.40
2014,07,03,07,35,16.50
2014,07,03,07,36,16.60
2014,07,03,07,37,16.70
2014,07,03,07,38,16.70
2014,07,03,07,39,16.80
2014,07,03,07,40,16.80
2014,07,03,07,41,16.90
2014,07,03,07,42,17.00
2014,07,03,07,43,17.00
2014,07,03,07,44,17.10
2014,07,03,07,45,17.10
2014,07,03,07,46,17.20
2014,07,03,07,47,17.20
2014,07,03,07,48,17.30
2014,07,03,07,49,17.30
2014,07,03,07,50,17.40
2014,07,03,07,51,17.50
2014,07,03,07,52,17.60
2014,07,03,07,53,17.70
2014,07,03,07,54,17.80
2014,07,03,07,55,17.80
2014,07,03,07,56,17.90
2014,07,03,07,57,18.00
2014,07,03,07,58,18.10
2014,07,03,07,59,18.10
2014,07,03,08,00,18.20
2014,07,03,08,01,18.30
2014,07,03,08,02,18.30
2014,07,03,08,03,18.40
2014,07,03,08,04,18.50
2014,07,03,08,05,18.50
2014,07,03,08,06,18.60
2014,07,03,08,07,18.60
2014,07,03,08,08,18.70
2014,07,03,08,09,18.70
2014,07,03,08,10,18.80
2014,07,03,08,11,18.90
2014,07,03,08,12,18.90
2014,07,03,08,13,19.00
2014,07,03,08,14,19.10
2014,07,03,08,15,19.20
2014,07,03,08,16,19.30
2014,07,03,08,17,19.30
2014,07,03,08,18,19.30
2014,07,03,08,19,19.30
2014,07,03,08,20,19.30
2014,07,03,08,21,19.20
2014,07,03,08,22,19.20
2014,07,03,08,23,19.10
2014,07,03,08,24,19.10
2014,07,03,08,25,19.20
2014,07,03,08,26,19.10
2014,07,03,08,27,19.10
2014,07,03,08,28,19.00
2014,07,03,08,29,19.00
2014,07,03,08,30,18.90
2014,07,03,08,31,18.80
2014,07,03,08,32,18.60
2014,07,03,08,33,18.50
2014,07,03,08,34,18.30
2014,07,03,08,35,18.20
2014,07,03,08,36,18.10
2014,07,03,08,37,18.00
2014,07,03,08,38,18.00
2014,07,03,08,39,17.90
2014,07,03,08,40,17.90
2014,07,03,08,41,17.90
2014,07,03,08,42,17.90
2014,07,03,08,43,18.00
2014,07,03,08,44,18.00
2014,07,03,08,45,18.00
2014,07,03,08,46,18.00
2014,07,03,08,47,18.00
2014,07,03,08,48,18.10
2014,07,03,08,49,18.10
2014,07,03,08,50,18.10
2014,07,03,08,51,18.00
2014,07,03,08,52,17.90
2014,07,03,08,53,17.90
2014,07,03,08,54,17.90
2014,07,03,08,55,17.90
2014,07,03,08,56,18.00
2014,07,03,08,57,18.00
2014,07,03,08,58,18.10
2014,07,03,08,59,18.10
2014,07,03,09,00,18.20
2014,07,03,09,01,18.10
2014,07,03,09,02,18.10
2014,07,03,09,03,18.00
2014,07,03,09,04,17.90
2014,07,03,09,05,17.90
2014,07,03,09,06,17.90
2014,07,03,09,07,17.90
2014,07,03,09,08,17.80
2014,07,03,09,09,17.90
2014,07,03,09,10,17.90
2014,07,03,09,11,17.90
2014,07,03,09,12,17.90
2014,07,03,09,13,17.90
2014,07,03,09,14,17.90
2014,07,03,09,15,17.90
2014,07,03,09,16,17.90
2014,07,03,09,17,17.90
2014,07,03,09,18,17.90
2014,07,03,09,19,17.90
2014,07,03,09,20,17.90
2014,07,03,09,21,18.00
2014,07,03,09,22,18.00
2014,07,03,09,23,18.10
2014,07,03,09,24,18.20
2014,07,03,09,25,18.20
2014,07,03,09,26,18.30
2014,07,03,09,27,18.40
2014,07,03,09,28,18.40
2014,07,03,09,29,18.50
2014,07,03,09,30,18.50
2014,07,03,09,31,18.50
2014,07,03,09,32,18.50
2014,07,03,09,33,18.40
2014,07,03,09,34,18.40
2014,07,03,09,35,18.30
2014,07,03,09,36,18.30
2014,07,03,09,37,18.30
2014,07,03,09,38,18.40
2014,07,03,09,39,18.40
2014,07,03,09,40,18.40
2014,07,03,09,41,18.40
2014,07,03,09,42,18.40
2014,07,03,09,43,18.40
2014,07,03,09,44,18.40
2014,07,03,09,45,18.50
2014,07,03,09,46,18.50
2014,07,03,09,47,18.50
2014,07,03,09,48,18.50
2014,07,03,09,49,18.40
2014,07,03,09,50,18.40
2014,07,03,09,51,18.30
2014,07,03,09,52,18.30
2014,07,03,09,53,18.30
2014,07,03,09,54,18.30
2014,07,03,09,55,18.30
2014,07,03,09,56,18.30
2014,07,03,09,57,18.20
2014,07,03,09,58,18.20
2014,07,03,09,59,18.20
2014,07,03,10,00,18.20
2014,07,03,10,01,18.20
2014,07,03,10,02,18.20
2014,07,03,10,03,18.20
2014,07,03,10,04,18.20
2014,07,03,10,05,18.20
2014,07,03,10,06,18.20
2014,07,03,10,07,18.20
2014,07,03,10,08,18.20
2014,07,03,10,09,18.20
2014,07,03,10,10,18.20
2014,07,03,10,11,18.20
2014,07,03,10,12,18.20
2014,07,03,10,13,18.20
2014,07,03,10,14,18.30
2014,07,03,10,15,18.30
2014,07,03,10,16,18.30
2014,07,03,10,17,18.40
2014,07,03,10,18,18.40
2014,07,03,10,19,18.50
2014,07,03,10,20,18.50
2014,07,03,10,21,18.60
2014,07,03,10,22,18.60
2014,07,03,10,23,18.70
2014,07,03,10,24,18.80
2014,07,03,10,25,18.90
2014,07,03,10,26,18.90
2014,07,03,10,27,19.00
2014,07,03,10,28,19.10
2014,07,03,10,29,19.10
2014,07,03,10,30,19.10
2014,07,03,10,31,19.10
2014,07,03,10,32,19.10
2014,07,03,10,33,19.10
2014,07,03,10,34,19.10
2014,07,03,10,35,19.10
2014,07,03,10,36,19.10
2014,07,03,10,37,19.20
2014,07,03,10,38,19.20
2014,07,03,10,39,19.30
2014,07,03,10,40,19.30
2014,07,03,10,41,19.20
2014,07,03,10,42,19.20
2014,07,03,10,43,19.10
2014,07,03,10,44,19.00
2014,07,03,10,45,18.90
2014,07,03,10,46,18.80
2014,07,03,10,47,18.70
2014,07,03,10,48,18.50
2014,07,03,10,49,18.40
2014,07,03,10,50,18.20
2014,07,03,10,51,18.20
2014,07,03,10,52,18.10
2014,07,03,10,53,18.10
2014,07,03,10,54,18.10
2014,07,03,10,55,18.10
2014,07,03,10,56,18.10
2014,07,03,10,57,18.10
2014,07,03,10,58,18.20
2014,07,03,10,59,18.30
2014,07,03,11,00,18.30
2014,07,03,11,01,18.40
2014,07,03,11,02,18.50
2014,07,03,11,03,18.50
2014,07,03,11,04,18.60
2014,07,03,11,05,18.70
2014,07,03,11,06,18.70
2014,07,03,11,07,18.80
2014,07,03,11,08,18.70
2014,07,03,11,09,18.60
2014,07,03,11,10,18.60
2014,07,03,11,11,18.60
2014,07,03,11,12,18.60
2014,07,03,11,13,18.70
2014,07,03,11,14,18.70
2014,07,03,11,15,18.80
2014,07,03,11,16,18.90
2014,07,03,11,17,19.00
2014,07,03,11,18,19.00
2014,07,03,11,19,19.10
2014,07,03,11,20,19.00
2014,07,03,11,21,18.90
2014,07,03,11,22,18.80
2014,07,03,11,23,18.80
2014,07,03,11,24,18.80
2014,07,03,11,25,18.80
2014,07,03,11,26,18.80
2014,07,03,11,27,18.80
2014,07,03,11,28,18.80
2014,07,03,11,29,18.80
2014,07,03,11,30,18.80
2014,07,03,11,31,18.70
2014,07,03,11,32,18.70
2014,07,03,11,33,18.70
2014,07,03,11,34,18.70
2014,07,03,11,35,18.70
2014,07,03,11,36,18.60
2014,07,03,11,37,18.60
2014,07,03,11,38,18.50
2014,07,03,11,39,18.50
2014,07,03,11,40,18.40
2014,07,03,11,41,18.40
2014,07,03,11,42,18.40
2014,07,03,11,43,18.40
2014,07,03,11,44,18.40
2014,07,03,11,45,18.40
2014,07,03,11,46,18.40
2014,07,03,11,47,18.30
2014,07,03,11,48,18.30
2014,07,03,11,49,18.30
2014,07,03,11,50,18.20
2014,07,03,11,51,18.20
2014,07,03,11,52,18.20
2014,07,03,11,53,18.20
2014,07,03,11,54,18.20
2014,07,03,11,55,18.20
2014,07,03,11,56,18.10
2014,07,03,11,57,18.10
2014,07,03,11,58,18.10
2014,07,03,11,59,18.20
2014,07,03,12,00,18.20
2014,07,03,12,01,18.20
2014,07,03,12,02,18.10
2014,07,03,12,03,18.10
2014,07,03,12,04,18.00
2014,07,03,12,05,18.00
2014,07,03,12,06,17.90
2014,07,03,12,07,17.90
2014,07,03,12,08,17.90
2014,07,03,12,09,17.80
2014,07,03,12,10,17.90
2014,07,03,12,11,17.90
2014,07,03,12,12,17.90
2014,07,03,12,13,17.90
2014,07,03,12,14,18.00
2014,07,03,12,15,18.00
2014,07,03,12,16,18.00
2014,07,03,12,17,18.00
2014,07,03,12,18,18.10
2014,07,03,12,19,18.10
2014,07,03,12,20,18.10
2014,07,03,12,21,18.20
2014,07,03,12,22,18.20
2014,07,03,12,23,18.30
2014,07,03,12,24,18.30
2014,07,03,12,25,18.30
2014,07,03,12,26,18.20
2014,07,03,12,27,18.20
2014,07,03,12,28,18.20
2014,07,03,12,29,18.20
2014,07,03,12,30,18.20
2014,07,03,12,31,18.20
2014,07,03,12,32,18.10
2014,07,03,12,33,18.20
2014,07,03,12,34,18.20
2014,07,03,12,35,18.30
2014,07,03,12,36,18.30
2014,07,03,12,37,18.40
2014,07,03,12,38,18.50
2014,07,03,12,39,18.50
2014,07,03,12,40,18.60
2014,07,03,12,41,18.60
2014,07,03,12,42,18.70
2014,07,03,12,43,18.70
2014,07,03,12,44,18.70
2014,07,03,12,45,18.70
2014,07,03,12,46,18.70
2014,07,03,12,47,18.80
2014,07,03,12,48,19.00
2014,07,03,12,49,19.10
2014,07,03,12,50,19.10
2014,07,03,12,51,19.10
2014,07,03,12,52,19.00
2014,07,03,12,53,19.00
2014,07,03,12,54,19.10
2014,07,03,12,55,19.10
2014,07,03,12,56,19.20
2014,07,03,12,57,19.20
2014,07,03,12,58,19.20
2014,07,03,12,59,19.20
2014,07,03,13,00,19.20
2014,07,03,13,01,19.30
2014,07,03,13,02,19.30
2014,07,03,13,03,19.30
2014,07,03,13,04,19.20
2014,07,03,13,05,19.20
2014,07,03,13,06,19.20
2014,07,03,13,07,19.20
2014,07,03,13,08,19.20
2014,07,03,13,09,19.20
2014,07,03,13,10,19.20
2014,07,03,13,11,19.20
2014,07,03,13,12,19.10
2014,07,03,13,13,19.20
2014,07,03,13,14,19.20
2014,07,03,13,15,19.20
2014,07,03,13,16,19.20
2014,07,03,13,17,19.10
2014,07,03,13,18,19.00
2014,07,03,13,19,18.90
2014,07,03,13,20,18.80
2014,07,03,13,21,18.70
2014,07,03,13,22,18.70
2014,07,03,13,23,18.70
2014,07,03,13,24,18.70
2014,07,03,13,25,18.80
2014,07,03,13,26,18.80
2014,07,03,13,27,18.70
2014,07,03,13,28,18.70
2014,07,03,13,29,18.70
2014,07,03,13,30,18.70
2014,07,03,13,31,18.70
2014,07,03,13,32,18.80
2014,07,03,13,33,18.90
2014,07,03,13,34,18.90
2014,07,03,13,35,18.90
2014,07,03,13,36,18.90
2014,07,03,13,37,18.90
2014,07,03,13,38,19.00
2014,07,03,13,39,19.10
2014,07,03,13,40,19.20
2014,07,03,13,41,19.30
2014,07,03,13,42,19.40
2014,07,03,13,43,19.60
2014,07,03,13,44,19.70
2014,07,03,13,45,19.90
2014,07,03,13,46,20.10
2014,07,03,13,47,20.30
2014,07,03,13,48,20.50
2014,07,03,13,49,20.80
2014,07,03,13,50,20.90
2014,07,03,13,51,21.10
2014,07,03,13,52,21.20
2014,07,03,13,53,21.20
2014,07,03,13,54,21.30
2014,07,03,13,55,21.40
2014,07,03,13,56,21.40
2014,07,03,13,57,21.40
2014,07,03,13,58,21.20
2014,07,03,13,59,21.10
2014,07,03,14,00,21.00
2014,07,03,14,01,20.90
2014,07,03,14,02,20.80
2014,07,03,14,03,20.80
2014,07,03,14,04,20.80
2014,07,03,14,05,20.80
2014,07,03,14,06,20.90
2014,07,03,14,07,21.00
2014,07,03,14,08,21.10
2014,07,03,14,09,21.10
2014,07,03,14,10,21.10
2014,07,03,14,11,20.90
2014,07,03,14,12,20.70
2014,07,03,14,13,20.50
2014,07,03,14,14,20.50
2014,07,03,14,15,20.60
2014,07,03,14,16,20.60
2014,07,03,14,17,20.70
2014,07,03,14,18,20.80
2014,07,03,14,19,20.80
2014,07,03,14,20,20.80
2014,07,03,14,21,20.90
2014,07,03,14,22,20.90
2014,07,03,14,23,20.90
2014,07,03,14,24,20.90
2014,07,03,14,25,21.00
2014,07,03,14,26,21.10
2014,07,03,14,27,21.20
2014,07,03,14,28,21.30
2014,07,03,14,29,21.30
2014,07,03,14,30,21.30
2014,07,03,14,31,21.30
2014,07,03,14,32,21.30
2014,07,03,14,33,21.40
2014,07,03,14,34,21.40
2014,07,03,14,35,21.50
2014,07,03,14,36,21.50
2014,07,03,14,37,21.60
2014,07,03,14,38,21.70
2014,07,03,14,39,21.80
2014,07,03,14,40,21.90
2014,07,03,14,41,21.90
2014,07,03,14,42,22.10
2014,07,03,14,43,22.10
2014,07,03,14,44,22.20
2014,07,03,14,45,22.20
2014,07,03,14,46,22.30
2014,07,03,14,47,22.30
2014,07,03,14,48,22.30
2014,07,03,14,49,22.20
2014,07,03,14,50,22.10
2014,07,03,14,51,21.80
2014,07,03,14,52,21.70
2014,07,03,14,53,21.60
2014,07,03,14,54,21.40
2014,07,03,14,55,21.30
2014,07,03,14,56,21.10
2014,07,03,14,57,20.90
2014,07,03,14,58,20.60
2014,07,03,14,59,20.40
2014,07,03,15,00,20.20
2014,07,03,15,01,20.00
2014,07,03,15,02,19.90
2014,07,03,15,03,19.80
2014,07,03,15,04,19.70
2014,07,03,15,05,19.60
2014,07,03,15,06,19.50
2014,07,03,15,07,19.50
2014,07,03,15,08,19.40
2014,07,03,15,09,19.40
2014,07,03,15,10,19.40
2014,07,03,15,11,19.40
2014,07,03,15,12,19.40
2014,07,03,15,13,19.30
2014,07,03,15,14,19.30
2014,07,03,15,15,19.40
2014,07,03,15,16,19.40
2014,07,03,15,17,19.40
2014,07,03,15,18,19.50
2014,07,03,15,19,19.50
2014,07,03,15,20,19.50
2014,07,03,15,21,19.50
2014,07,03,15,22,19.40
2014,07,03,15,23,19.40
2014,07,03,15,24,19.40
2014,07,03,15,25,19.30
2014,07,03,15,26,19.30
2014,07,03,15,27,19.40
2014,07,03,15,28,19.40
2014,07,03,15,29,19.30
2014,07,03,15,30,19.40
2014,07,03,15,31,19.40
2014,07,03,15,32,19.50
2014,07,03,15,33,19.60
2014,07,03,15,34,19.70
2014,07,03,15,35,19.80
2014,07,03,15,36,19.80
2014,07,03,15,37,19.80
2014,07,03,15,38,19.80
2014,07,03,15,39,19.80
2014,07,03,15,40,19.80
2014,07,03,15,41,19.80
2014,07,03,15,42,19.70
2014,07,03,15,43,19.60
2014,07,03,15,44,19.50
2014,07,03,15,45,19.50
2014,07,03,15,46,19.40
2014,07,03,15,47,19.40
2014,07,03,15,48,19.50
2014,07,03,15,49,19.50
2014,07,03,15,50,19.60
2014,07,03,15,51,19.60
2014,07,03,15,52,19.60
2014,07,03,15,53,19.50
2014,07,03,15,54,19.50
2014,07,03,15,55,19.50
2014,07,03,15,56,19.50
2014,07,03,15,57,19.60
2014,07,03,15,58,19.60
2014,07,03,15,59,19.70
2014,07,03,16,00,19.70
2014,07,03,16,01,19.70
2014,07,03,16,02,19.70
2014,07,03,16,03,19.60
2014,07,03,16,04,19.70
2014,07,03,16,05,19.70
2014,07,03,16,06,19.80
2014,07,03,16,07,19.90
2014,07,03,16,08,20.00
2014,07,03,16,09,20.10
2014,07,03,16,10,20.20
2014,07,03,16,11,20.30
2014,07,03,16,12,20.40
2014,07,03,16,13,20.40
2014,07,03,16,14,20.40
2014,07,03,16,15,20.40
2014,07,03,16,16,20.40
2014,07,03,16,17,20.40
2014,07,03,16,18,20.40
2014,07,03,16,19,20.30
2014,07,03,16,20,20.30
2014,07,03,16,21,20.30
2014,07,03,16,22,20.30
2014,07,03,16,23,20.30
2014,07,03,16,24,20.30
2014,07,03,16,25,20.30
2014,07,03,16,26,20.30
2014,07,03,16,27,20.20
2014,07,03,16,28,20.20
2014,07,03,16,29,20.10
2014,07,03,16,30,20.10
2014,07,03,16,31,20.00
2014,07,03,16,32,20.00
2014,07,03,16,33,20.00
2014,07,03,16,34,19.90
2014,07,03,16,35,19.90
2014,07,03,16,36,19.80
2014,07,03,16,37,19.70
2014,07,03,16,38,19.60
2014,07,03,16,39,19.60
2014,07,03,16,40,19.60
2014,07,03,16,41,19.60
2014,07,03,16,42,19.60
2014,07,03,16,43,19.60
2014,07,03,16,44,19.70
2014,07,03,16,45,19.70
2014,07,03,16,46,19.70
2014,07,03,16,47,19.70
2014,07,03,16,48,19.70
2014,07,03,16,49,19.80
2014,07,03,16,50,19.80
2014,07,03,16,51,19.90
2014,07,03,16,52,20.00
2014,07,03,16,53,20.10
2014,07,03,16,54,20.20
2014,07,03,16,55,20.30
2014,07,03,16,56,20.50
2014,07,03,16,57,20.60
2014,07,03,16,58,20.70
2014,07,03,16,59,20.80
2014,07,03,17,00,20.90
2014,07,03,17,01,20.90
2014,07,03,17,02,20.80
2014,07,03,17,03,20.80
2014,07,03,17,04,20.80
2014,07,03,17,05,20.70
2014,07,03,17,06,20.70
2014,07,03,17,07,20.70
2014,07,03,17,08,20.70
2014,07,03,17,09,20.80
2014,07,03,17,10,20.80
2014,07,03,17,11,20.90
2014,07,03,17,12,21.00
2014,07,03,17,13,21.10
2014,07,03,17,14,21.20
2014,07,03,17,15,21.20
2014,07,03,17,16,21.30
2014,07,03,17,17,21.30
2014,07,03,17,18,21.30
2014,07,03,17,19,21.40